WA6MEM Weather Reports


time (UTC)temp
C
wind
direction
speed
KPH
gust
KPH
rain 1hr
cm
rain 24hr
cm
rain mn
cm
humidity
%
barometer
mb
20260906005028 23 215 3.2 0.0 0.00 0.00 0.03 66 1010.7
20260906004526 24 235 3.2 0.0 0.00 0.00 0.03 65 1010.7
20260906004026 24 178 3.2 0.0 0.00 0.00 0.03 66 1010.6
20260906003527 24 213 1.6 0.0 0.00 0.00 0.03 66 1010.6
20260906003027 24 194 3.2 0.0 0.00 0.00 0.03 63 1010.6
20260906002527 25 148 3.2 0.0 0.00 0.00 0.03 63 1010.5
20260906002026 25 173 3.2 0.0 0.00 0.00 0.03 64 1010.5
20260906001533 25 167 3.2 0.0 0.00 0.00 0.03 62 1010.5
20260906001026 25 179 3.2 0.0 0.00 0.00 0.03 60 1010.5
20260906000526 25 166 3.2 0.0 0.00 0.00 0.03 58 1010.5
20260906000026 25 172 3.2 0.0 0.00 0.00 0.03 57 1010.5
20260905235526 25 170 3.2 0.0 0.00 0.00 0.03 55 1010.6
20260905235028 25 215 3.2 0.0 0.00 0.00 0.03 58 1010.6
20260905234525 26 154 4.8 0.0 0.00 0.00 0.03 56 1010.6
20260905234025 26 205 4.8 0.0 0.00 0.00 0.03 52 1010.7
20260905233525 25 170 4.8 0.0 0.00 0.00 0.03 53 1010.7
20260905233025 25 181 4.8 0.0 0.00 0.00 0.03 51 1010.7
20260905232525 25 207 4.8 0.0 0.00 0.00 0.03 54 1010.5
20260905232025 26 183 4.8 0.0 0.00 0.00 0.03 55 1010.5
20260905231525 26 173 3.2 0.0 0.00 0.00 0.03 53 1010.5
20260905231025 26 141 3.2 0.0 0.00 0.00 0.03 52 1010.6
20260905230524 26 186 3.2 0.0 0.00 0.00 0.03 50 1010.6
20260905230031 26 176 3.2 0.0 0.00 0.00 0.03 53 1010.6
20260905225526 26 169 3.2 0.0 0.00 0.00 0.03 51 1010.7
20260905225023 26 144 3.2 0.0 0.00 0.00 0.03 57 1010.7
20260905224523 26 148 4.8 0.0 0.00 0.00 0.03 51 1010.7
20260905224022 27 182 3.2 0.0 0.00 0.00 0.03 51 1010.9
20260905223522 26 169 3.2 0.0 0.00 0.00 0.03 50 1010.9
20260905223021 26 206 3.2 0.0 0.00 0.00 0.03 49 1010.9
20260905222522 26 170 3.2 0.0 0.00 0.00 0.03 51 1011.1
20260905222021 26 195 3.2 0.0 0.00 0.00 0.03 51 1011.1
20260905221520 26 152 3.2 0.0 0.00 0.00 0.03 49 1011.1
20260905221021 26 169 3.2 0.0 0.00 0.00 0.03 58 1011.1
20260905220520 26 174 4.8 0.0 0.00 0.00 0.03 56 1011.1
20260905220023 26 182 4.8 0.0 0.00 0.00 0.03 55 1011.1
20260905215520 26 170 4.8 0.0 0.00 0.00 0.03 61 1011.1
20260905215020 26 155 4.8 0.0 0.00 0.00 0.03 61 1011.1
20260905214519 26 360 3.2 0.0 0.00 0.00 0.03 49 1011.1
20260905214018 26 212 3.2 0.0 0.00 0.00 0.03 55 1011.4
20260905213517 26 201 4.8 0.0 0.00 0.00 0.03 61 1011.4
20260905213016 26 206 4.8 0.0 0.00 0.00 0.03 59 1011.4
20260905212515 26 133 4.8 0.0 0.00 0.00 0.03 61 1011.5
20260905212013 25 172 4.8 0.0 0.00 0.00 0.03 60 1011.5
20260905211539 25 157 4.8 0.0 0.00 0.00 0.03 60 1011.5
20260905211014 25 206 4.8 0.0 0.00 0.00 0.03 61 1011.6
20260905210514 25 161 4.8 0.0 0.00 0.00 0.03 64 1011.6
20260905210013 25 177 3.2 0.0 0.00 0.00 0.03 66 1011.6
20260905205513 25 211 3.2 0.0 0.00 0.00 0.03 65 1011.7
20260905205013 25 143 3.2 0.0 0.00 0.00 0.03 67 1011.7
20260905204512 25 169 4.8 0.0 0.00 0.00 0.03 69 1011.7
20260905204015 25 176 4.8 0.0 0.00 0.00 0.03 70 1011.7
20260905203511 25 153 4.8 0.0 0.00 0.00 0.03 70 1011.7
20260905203011 25 165 3.2 0.0 0.00 0.00 0.03 68 1011.7
20260905202510 25 157 3.2 0.0 0.00 0.00 0.03 67 1011.8
20260905202009 25 107 3.2 0.0 0.00 0.00 0.03 69 1011.8
20260905201509 24 238 4.8 0.0 0.00 0.00 0.03 70 1011.8
20260905201008 23 166 3.2 0.0 0.00 0.00 0.03 72 1012.3
20260905200510 23 229 3.2 0.0 0.00 0.00 0.03 69 1012.3
20260905200009 23 206 4.8 0.0 0.00 0.00 0.03 74 1012.3
20260905195507 23 211 4.8 0.0 0.00 0.00 0.03 76 1012.4
20260905195009 23 219 4.8 0.0 0.00 0.00 0.03 76 1012.4
20260905194507 23 167 3.2 0.0 0.00 0.00 0.03 76 1012.4
20260905194007 23 155 3.2 0.0 0.00 0.00 0.03 77 1012.6
20260905193506 23 210 4.8 0.0 0.00 0.00 0.03 75 1012.6
20260905193006 23 194 4.8 0.0 0.00 0.00 0.03 73 1012.6
20260905192506 24 175 4.8 0.0 0.00 0.00 0.03 74 1012.5
20260905192006 24 200 4.8 0.0 0.00 0.00 0.03 73 1012.5
20260905191507 25 149 3.2 0.0 0.00 0.00 0.03 72 1012.5
20260905191006 25 158 3.2 0.0 0.00 0.00 0.03 71 1012.6
20260905190505 25 158 3.2 0.0 0.00 0.00 0.03 72 1012.6
20260905190006 25 168 3.2 0.0 0.00 0.00 0.03 70 1012.6
20260905185505 25 194 3.2 0.0 0.00 0.00 0.03 72 1012.8
20260905185005 25 157 3.2 0.0 0.00 0.00 0.03 69 1012.8
20260905184502 25 116 1.6 0.0 0.00 0.00 0.03 70 1012.8
20260905184002 23 136 1.6 0.0 0.00 0.00 0.03 61 1012.8
20260905183600 23 360 1.6 0.0 0.00 0.00 0.03 77 1012.8
20260905183059 23 186 1.6 0.0 0.00 0.00 0.03 78 1012.8
20260905182558 23 139 3.2 0.0 0.00 0.00 0.03 79 1012.9
20260905182057 23 190 3.2 0.0 0.00 0.00 0.03 79 1012.9
20260905181557 23 215 3.2 0.0 0.00 0.00 0.03 79 1012.9
20260905181056 23 192 3.2 0.0 0.00 0.00 0.03 79 1012.9
20260905180557 23 157 3.2 0.0 0.00 0.00 0.03 78 1012.9
20260905180103 23 197 3.2 0.0 0.00 0.00 0.03 79 1012.9
20260905175559 23 157 3.2 0.0 0.00 0.00 0.03 78 1012.9
20260905175055 23 159 3.2 0.0 0.00 0.00 0.03 79 1012.9
20260905174555 22 207 3.2 0.0 0.00 0.00 0.03 78 1012.9
20260905174054 22 187 3.2 0.0 0.00 0.00 0.03 81 1012.7
20260905173551 22 127 1.6 0.0 0.00 0.00 0.03 80 1012.7
20260905173100 22 176 1.6 0.0 0.00 0.00 0.03 81 1012.7
20260905172550 22 223 3.2 0.0 0.00 0.00 0.03 81 1012.7
20260905172050 21 190 3.2 0.0 0.00 0.00 0.03 82 1012.7
20260905171547 21 144 1.6 0.0 0.00 0.00 0.03 81 1012.7
20260905171046 21 217 1.6 0.0 0.00 0.00 0.03 83 1012.9
20260905170546 21 163 3.2 0.0 0.00 0.00 0.03 83 1012.9
20260905170045 21 155 3.2 0.0 0.00 0.00 0.03 83 1012.9
20260905165544 21 153 3.2 0.0 0.00 0.00 0.03 83 1012.8
20260905165045 21 181 1.6 0.0 0.00 0.00 0.03 85 1012.8
20260905164543 21 188 1.6 0.0 0.00 0.00 0.03 85 1012.8
20260905164040 21 161 1.6 0.0 0.00 0.00 0.03 86 1012.6
20260905163540 20 146 1.6 0.0 0.00 0.00 0.03 86 1012.6
20260905163040 20 198 1.6 0.0 0.00 0.00 0.03 87 1012.6
20260905162540 20 168 1.6 0.0 0.00 0.00 0.03 87 1012.5
20260905162038 20 159 1.6 0.0 0.00 0.00 0.03 88 1012.5
20260905161537 20 188 1.6 0.0 0.00 0.00 0.03 89 1012.5
20260905161036 20 127 1.6 0.0 0.00 0.00 0.03 89 1012.5
20260905160534 20 150 0.0 0.0 0.00 0.00 0.03 90 1012.5
20260905160035 19 186 0.0 0.0 0.00 0.00 0.03 91 1012.5
20260905155533 19 186 0.0 0.0 0.00 0.00 0.03 92 1012.6
20260905155032 18 194 1.6 0.0 0.00 0.00 0.03 92 1012.6
20260905154534 18 107 1.6 0.0 0.00 0.00 0.03 92 1012.6
20260905154032 18 44 1.6 0.0 0.00 0.00 0.03 93 1012.5
20260905153527 18 78 3.2 0.0 0.00 0.00 0.03 94 1012.5
20260905153026 17 86 3.2 0.0 0.00 0.00 0.03 95 1012.5
20260905152525 17 355 4.8 0.0 0.00 0.00 0.03 96 1012.2
20260905152027 17 46 4.8 0.0 0.00 0.00 0.03 96 1012.2
20260905151523 17 11 4.8 0.0 0.00 0.00 0.03 97 1012.2
20260905151023 17 355 3.2 0.0 0.00 0.00 0.03 97 1012.2
20260905150521 17 20 4.8 0.0 0.00 0.00 0.03 97 1012.2
20260905150021 16 20 4.8 0.0 0.00 0.00 0.03 97 1012.2
20260905145522 16 14 3.2 0.0 0.00 0.00 0.03 97 1012.3
20260905145020 16 12 3.2 0.0 0.00 0.00 0.03 97 1012.3
20260905144519 16 5 1.6 0.0 0.00 0.00 0.03 97 1012.3
20260905144018 16 71 0.0 0.0 0.00 0.00 0.03 97 1012.3
20260905143519 16 72 0.0 0.0 0.00 0.00 0.03 97 1012.3
20260905143022 16 72 0.0 0.0 0.00 0.00 0.03 97 1012.3
20260905142518 15 72 0.0 0.0 0.00 0.00 0.03 97 1012.2
20260905142021 15 71 0.0 0.0 0.00 0.00 0.03 97 1012.2
20260905141525 15 71 0.0 0.0 0.00 0.00 0.03 97 1012.2
20260905141021 15 71 0.0 0.0 0.00 0.00 0.03 97 1011.9
20260905140520 15 72 0.0 0.0 0.00 0.00 0.03 97 1011.9
20260905140018 15 72 0.0 0.0 0.00 0.00 0.03 97 1011.9
20260905135517 15 71 0.0 0.0 0.00 0.00 0.03 97 1011.7
20260905135017 15 71 0.0 0.0 0.00 0.00 0.03 97 1011.7
20260905134517 15 72 0.0 0.0 0.00 0.00 0.03 97 1011.7
20260905134019 15 72 0.0 0.0 0.00 0.00 0.03 97 1011.5
20260905133516 15 72 0.0 0.0 0.00 0.00 0.03 97 1011.5
20260905133016 15 71 0.0 0.0 0.00 0.00 0.03 97 1011.5
20260905132517 15 71 0.0 0.0 0.00 0.00 0.03 97 1011.7
20260905132017 15 72 0.0 0.0 0.00 0.00 0.03 97 1011.7
20260905131519 15 72 0.0 0.0 0.00 0.00 0.03 97 1011.7
20260905131015 15 71 0.0 0.0 0.00 0.00 0.03 97 1011.2
20260905130515 15 71 0.0 0.0 0.00 0.00 0.03 97 1011.2
20260905130014 15 72 0.0 0.0 0.00 0.00 0.03 97 1011.2
20260905125514 15 71 0.0 0.0 0.00 0.00 0.03 97 1011.2
20260905125015 15 71 0.0 0.0 0.00 0.00 0.03 97 1011.2
20260905124517 15 72 0.0 0.0 0.00 0.00 0.03 97 1011.2
20260905124015 15 71 0.0 0.0 0.00 0.00 0.03 97 1011.1
20260905123514 15 71 0.0 0.0 0.00 0.00 0.03 97 1011.1
20260905123012 15 72 0.0 0.0 0.00 0.00 0.03 97 1011.1
20260905122512 15 71 0.0 0.0 0.00 0.00 0.03 97 1011.1
20260905122012 15 71 0.0 0.0 0.00 0.00 0.03 97 1011.1
20260905121512 15 71 0.0 0.0 0.00 0.00 0.03 97 1011.1
20260905121011 15 72 0.0 0.0 0.00 0.00 0.03 97 1011.1
20260905120514 15 72 0.0 0.0 0.00 0.00 0.03 96 1011.1
20260905120009 15 71 0.0 0.0 0.00 0.00 0.03 96 1011.1
20260905115509 15 71 0.0 0.0 0.00 0.00 0.03 97 1011.0
20260905115012 16 72 0.0 0.0 0.00 0.00 0.03 97 1011.0
20260905114510 16 71 0.0 0.0 0.00 0.00 0.03 97 1011.0
20260905114008 16 71 0.0 0.0 0.00 0.00 0.03 97 1011.0
20260905113509 16 72 0.0 0.0 0.00 0.00 0.03 97 1011.0
20260905113008 16 79 0.0 0.0 0.00 0.00 0.03 97 1011.0
20260905112509 16 79 0.0 0.0 0.00 0.00 0.03 97 1011.0
20260905112007 16 79 0.0 0.0 0.00 0.00 0.03 97 1011.0
20260905111508 15 79 0.0 0.0 0.00 0.00 0.00 97 1011.0
20260905111007 15 79 0.0 0.0 0.00 0.00 0.00 97 1011.3
20260905110506 15 79 0.0 0.0 0.00 0.00 0.00 97 1011.3
20260905110007 15 79 0.0 0.0 0.00 0.00 0.00 97 1011.3
20260905105507 15 79 0.0 0.0 0.00 0.00 0.00 97 1011.3
20260905105008 15 79 0.0 0.0 0.00 0.00 0.00 96 1011.3
20260905104506 15 207 0.0 0.0 0.00 0.00 0.00 96 1011.3
20260905104005 15 207 0.0 0.0 0.00 0.00 0.00 96 1011.3
20260905103505 16 207 0.0 0.0 0.00 0.00 0.00 96 1011.3
20260905103005 16 207 0.0 0.0 0.00 0.00 0.00 96 1011.3
20260905102504 16 207 0.0 0.0 0.00 0.00 0.00 96 1011.2
20260905102004 16 207 0.0 0.0 0.00 0.00 0.00 96 1011.2
20260905101507 16 207 0.0 0.0 0.00 0.00 0.00 96 1011.2
20260905101003 16 207 0.0 0.0 0.00 0.00 0.00 96 1011.3
20260905100503 16 207 0.0 0.0 0.00 0.00 0.00 96 1011.3
20260905100004 16 207 0.0 0.0 0.00 0.00 0.00 96 1011.3
20260905095503 16 207 0.0 0.0 0.00 0.00 0.00 96 1011.3
20260905095005 16 207 0.0 0.0 0.00 0.00 0.00 96 1011.3
20260905094503 16 207 0.0 0.0 0.00 0.00 0.00 96 1011.3
20260905094004 16 207 0.0 0.0 0.00 0.00 0.00 96 1011.3
20260905093502 16 207 0.0 0.0 0.00 0.00 0.00 96 1011.3
20260905093002 16 207 0.0 0.0 0.00 0.00 0.00 96 1011.3
20260905092501 16 207 0.0 0.0 0.00 0.00 0.00 97 1011.3
20260905092001 16 178 0.0 0.0 0.00 0.00 0.00 97 1011.3
20260905091503 16 178 0.0 0.0 0.00 0.00 0.00 96 1011.3
20260905091003 16 188 0.0 0.0 0.00 0.00 0.00 96 1011.3
20260905090600 16 188 0.0 0.0 0.00 0.00 0.00 96 1011.3
20260905090100 16 171 0.0 0.0 0.00 0.00 0.00 96 1011.3
20260905085602 16 171 0.0 0.0 0.00 0.00 0.00 97 1011.4
20260905085058 16 171 0.0 0.0 0.00 0.00 0.00 96 1011.4
20260905084601 16 174 0.0 0.0 0.00 0.00 0.00 96 1011.4
20260905084058 16 174 0.0 0.0 0.00 0.00 0.00 96 1011.4
20260905083558 16 174 0.0 0.0 0.00 0.00 0.00 96 1011.4
20260905083059 16 174 0.0 0.0 0.00 0.00 0.00 96 1011.4
20260905082557 16 174 0.0 0.0 0.00 0.00 0.00 96 1011.8
20260905082057 16 174 0.0 0.0 0.00 0.00 0.00 96 1011.8
20260905081559 16 174 0.0 0.0 0.00 0.00 0.00 96 1011.8
20260905081058 16 174 0.0 0.0 0.00 0.00 0.00 96 1011.9
20260905080556 16 174 0.0 0.0 0.00 0.00 0.00 96 1011.9
20260905080104 16 174 0.0 0.0 0.00 0.00 0.00 96 1011.9
20260905075557 16 174 0.0 0.0 0.00 0.00 0.00 96 1011.9
20260905075056 16 174 0.0 0.0 0.00 0.00 0.00 96 1011.9
20260905074556 16 174 0.0 0.0 0.00 0.00 0.00 96 1011.9
20260905074055 15 174 0.0 0.0 0.00 0.00 0.00 95 1011.7
20260905073559 16 151 0.0 0.0 0.00 0.00 0.00 96 1011.7
20260905073055 16 151 0.0 0.0 0.00 0.00 0.00 96 1011.7
20260905072554 16 151 0.0 0.0 0.00 0.00 0.00 95 1011.8
20260905072053 16 151 0.0 0.0 0.00 0.00 0.00 95 1011.8
20260905071553 16 151 0.0 0.0 0.00 0.00 0.00 95 1011.8
20260905071051 16 288 0.0 0.0 0.00 0.00 0.00 95 1011.5
20260905070551 16 288 0.0 0.0 0.00 0.00 0.00 95 1011.5
20260905070052 16 288 0.0 0.0 0.00 0.00 0.00 95 1011.5
20260905065552 16 288 1.6 0.0 0.00 0.00 0.03 96 1011.4
20260905065050 16 288 1.6 0.0 0.00 0.00 0.03 96 1011.4
20260905064550 16 290 1.6 0.0 0.00 0.00 0.03 96 1011.4
20260905064049 16 269 1.6 0.0 0.00 0.00 0.03 96 1011.5
20260905063549 16 284 1.6 0.0 0.00 0.00 0.03 96 1011.5
20260905063056 16 233 3.2 0.0 0.00 0.00 0.03 96 1011.5
20260905062548 16 282 4.8 0.0 0.00 0.00 0.03 96 1011.5
20260905062049 16 297 3.2 0.0 0.00 0.00 0.03 96 1011.5
20260905061551 16 261 1.6 0.0 0.00 0.00 0.03 96 1011.5
20260905061049 16 209 1.6 0.0 0.00 0.00 0.03 96 1011.5
20260905060548 16 206 1.6 0.0 0.00 0.00 0.03 95 1011.5
20260905060048 16 190 3.2 0.0 0.00 0.00 0.03 95 1011.5
20260905055549 17 243 4.8 0.0 0.00 0.00 0.03 96 1011.4
20260905055049 17 294 4.8 0.0 0.00 0.00 0.03 96 1011.4
20260905054554 16 261 4.8 0.0 0.00 0.00 0.03 95 1011.4
20260905054050 17 304 6.4 0.0 0.00 0.00 0.03 95 1011.4
20260905053547 17 264 4.8 0.0 0.00 0.00 0.03 95 1011.4
20260905053048 17 210 3.2 0.0 0.00 0.00 0.03 95 1011.4
20260905052549 17 261 3.2 0.0 0.00 0.00 0.03 95 1011.4
20260905052049 17 242 3.2 0.0 0.00 0.00 0.03 95 1011.4
20260905051547 17 277 3.2 0.0 0.00 0.00 0.03 95 1011.4
20260905051047 17 260 3.2 0.0 0.00 0.00 0.03 95 1011.7
20260905050547 17 244 1.6 0.0 0.00 0.00 0.03 95 1011.7
20260905050047 17 169 1.6 0.0 0.00 0.00 0.03 95 1011.7
20260905045546 17 161 3.2 0.0 0.00 0.00 0.03 95 1011.5
20260905045046 17 238 3.2 0.0 0.00 0.00 0.03 95 1011.5
20260905044547 17 254 4.8 0.0 0.00 0.00 0.03 95 1011.5
20260905044045 17 267 3.2 0.0 0.00 0.00 0.03 95 1011.4
20260905043546 17 283 3.2 0.0 0.00 0.00 0.03 95 1011.4
20260905043046 17 321 1.6 0.0 0.00 0.00 0.03 95 1011.4
20260905042549 17 284 3.2 0.0 0.00 0.00 0.03 95 1011.2
20260905042045 17 234 3.2 0.0 0.00 0.00 0.03 95 1011.2
20260905041546 17 301 4.8 0.0 0.00 0.00 0.03 94 1011.2
20260905041045 17 255 6.4 0.0 0.00 0.00 0.03 94 1011.1
20260905040545 17 278 4.8 0.0 0.00 0.00 0.03 94 1011.1
20260905040051 17 257 3.2 0.0 0.00 0.00 0.03 94 1011.1
20260905035545 17 285 3.2 0.0 0.00 0.00 0.03 94 1010.9
20260905035045 17 293 4.8 0.0 0.00 0.00 0.03 94 1010.9
20260905034545 17 297 4.8 0.0 0.00 0.00 0.03 94 1010.9
20260905034046 17 275 4.8 0.0 0.00 0.00 0.03 94 1011.0
20260905033544 17 274 4.8 0.0 0.00 0.00 0.03 93 1011.0
20260905033044 17 297 4.8 0.0 0.00 0.00 0.03 93 1011.0
20260905032544 17 263 4.8 0.0 0.00 0.00 0.03 93 1010.7
20260905032044 17 275 4.8 0.0 0.00 0.00 0.03 93 1010.7
20260905031544 17 264 4.8 0.0 0.00 0.00 0.03 93 1010.7
20260905031043 17 252 4.8 0.0 0.00 0.00 0.03 93 1010.7
20260905030543 17 289 4.8 0.0 0.00 0.00 0.03 93 1010.7
20260905030047 17 304 4.8 0.0 0.00 0.00 0.03 93 1010.7
20260905025543 17 316 4.8 0.0 0.00 0.00 0.03 93 1010.6
20260905025043 17 272 4.8 0.0 0.00 0.00 0.03 93 1010.6
20260905024543 17 250 3.2 0.0 0.00 0.00 0.03 93 1010.6
20260905024042 17 257 4.8 0.0 0.00 0.00 0.03 93 1010.6
20260905023542 17 277 6.4 0.0 0.00 0.00 0.03 93 1010.6
20260905023043 17 242 6.4 0.0 0.00 0.00 0.03 92 1010.6
20260905022542 17 266 4.8 0.0 0.00 0.00 0.03 92 1010.6
20260905022042 17 310 3.2 0.0 0.00 0.00 0.03 91 1010.6
20260905021542 17 317 4.8 0.0 0.00 0.00 0.03 91 1010.6
20260905021042 17 298 4.8 0.0 0.00 0.00 0.03 91 1010.7
20260905020542 17 311 4.8 0.0 0.00 0.00 0.03 91 1010.7
20260905020042 17 280 4.8 0.0 0.00 0.00 0.03 90 1010.7
20260905015541 17 274 4.8 0.0 0.00 0.00 0.03 90 1010.7
20260905015042 18 275 4.8 0.0 0.00 0.00 0.03 89 1010.7
20260905014541 18 304 6.4 0.0 0.00 0.00 0.03 89 1010.7
20260905014041 18 312 4.8 0.0 0.00 0.00 0.03 88 1010.7
20260905013545 18 291 4.8 0.0 0.00 0.00 0.03 87 1010.7
20260905013040 18 144 4.8 0.0 0.00 0.00 0.03 86 1010.7
20260905012543 19 279 4.8 0.0 0.00 0.00 0.03 85 1010.6
20260905012041 20 262 3.2 0.0 0.00 0.00 0.03 84 1010.6
20260905011541 20 281 3.2 0.0 0.00 0.00 0.03 83 1010.6
20260905011041 20 286 3.2 0.0 0.00 0.00 0.03 83 1010.8
20260905010541 20 239 3.2 0.0 0.00 0.00 0.03 83 1010.8
20260905010044 20 190 3.2 0.0 0.00 0.00 0.03 82 1010.8
20260905005539 20 160 4.8 0.0 0.00 0.00 0.03 82 1010.8